Regional Weather Roundup
Issued by NWS

Home | Current Version | Previous Version | Graphics & Text | Print | Product List | Glossary On
Versions: 1 2 3 4 5 6 7 8 9 10 11 12 13 14 15 16 17 18 19 20 21 22 23 24 25 26 27 28 29 30 31 32 33 34 35 36 37 38 39 40 41 42 43 44 45 46 47 48 49 50
000
ASUS45 KBOU 270807
RWRCO

WEATHER ROUNDUP FOR COLORADO
NATIONAL WEATHER SERVICE DENVER/BOULDER CO
100 AM MST THU NOV 27 2014

NOTE: "FAIR" INDICATES FEW OR NO CLOUDS BELOW 12000 FEET WITH NO
SIGNIFICANT WEATHER AND/OR OBSTRUCTIONS TO VISIBILITY.

COZ001>005-013-030-031-270900-
...NORTHWEST COLORADO...

CITY           SKY/WX    TMP DP  RH WIND       PRES   REMARKS
CRAIG          MOCLDY    27  23  85 E3        30.42S
HAYDEN         MOCLDY    28  23  80 E9        30.42R WCI  20
MEEKER         MOCLDY    26  21  81 CALM      30.45S
MOUNT WERNER   NOT AVBL
STEAMBOAT SPGS MOCLDY    27  26  94 CALM      30.43R
WALDEN         PTCLDY    34  19  55 SW15      30.37S WCI  24
$$

COZ006>008-011-270900-
...WEST CENTRAL VALLEYS...

CITY           SKY/WX    TMP DP  RH WIND       PRES   REMARKS
GRAND JUNCTION CLEAR     31  25  78 E9        30.45S WCI  23
MONTROSE       PTCLDY    25  20  81 SE7       30.50S WCI  17
EAGLE          PTCLDY    27  25  93 CALM      30.50S
RIFLE          PTCLDY    26  22  84 CALM      30.49S
DELTA          PTCLDY    31  25  78 CALM      30.49S
NUCLA          PTCLDY    32  23  69 E5        30.52S HAZE    WCI  27
$$

COZ017>023-064>068-270900-
...SOUTHWEST COLORADO...

CITY           SKY/WX    TMP DP  RH WIND       PRES   REMARKS
DURANGO        PTCLDY    26  19  74 CALM      30.46F
CORTEZ         CLEAR     25  20  81 E8        30.47F WCI  16
PAGOSA SPRINGS PTCLDY    25  19  77 CALM      30.49F
TELLURIDE      NOT AVBL
WOLF CREEK PAS CLEAR     28  10  47 MISG      30.58F
$$

COZ009-010-012-014-032>034-037-058>063-270900-
...CENTRAL COLORADO...

CITY           SKY/WX    TMP DP  RH WIND       PRES   REMARKS
ASPEN          PTCLDY    19  15  84 S6        30.49S WCI  11
BUENA VISTA    CLEAR     29  19  65 SE6       30.42S WCI  23
COPPER MTN     CLEAR     25  19  80 W24G32    30.50F WCI   9
BERTHOUD PASS  NOT AVBL
COTTONWOOD PAS CLEAR     37   9  30 N6G26     30.44S
GUNNISON       CLEAR     19  12  73 CALM      30.54S
KREMMLING      PTCLDY    30  21  69 E3        30.45S
LEADVILLE      CLEAR     20  12  71 NE10      30.48S WCI   9
MONARCH PASS   CLOUDY    19  18  93 MISG      30.59S
SALIDA         CLEAR     43  22  43 SW16G25   30.47S
SUNLIGHT       PTCLDY    27  25  93 CALM      30.53F
WILKERSON PASS PTCLDY    27  10  50 SW5       30.47F WCI  21
$$

COZ069>075-270900-
...SAN LUIS VALLEY/SANGRE DE CRISTO MOUNTAINS...

CITY           SKY/WX    TMP DP  RH WIND       PRES   REMARKS
ALAMOSA        PTCLDY    16  11  80 W5        30.48S WCI   9
LA VETA PASS   CLEAR     30  19  64 S16G31    30.45S WCI  19
SAGUACHE       CLEAR     30  23  74 N12       30.50S WCI  21
$$

COZ035-036-038>040-270900-
...NORTHERN COLORADO FRONT RANGE...

CITY           SKY/WX    TMP DP  RH WIND       PRES   REMARKS
DENVER INTL AP MOCLDY    28  23  81 SW3       30.24F
DMNS CITY PARK   N/A     28  24  83 S1        30.25S
AURORA         PTCLDY    27  23  84 VRB1      30.26S
FRONT RANGE AP PTCLDY    30  27  86 S13       30.26R WCI  20
ERIE MUNI ARPT MOCLDY    22  20  95 S3        30.25F
BOULDER MUN AP MOCLDY    27  25  93 SE5       30.24S WCI  21
CENTENNIAL     MOCLDY    39  23  52 S7        30.25S
BROOMFIELD     MOCLDY    28  27  93 SW5       30.25S WCI  23
FORT COLLINS   MOCLDY    21  18  86 CALM      30.26F
LONGMONT       MOCLDY    24  21  89 NW3       30.28S
$$

COZ041-046-047-076>085-087-088-270900-
...PIKES PEAK/PALMER DIVIDE AND SOUTHERN FOOTHILLS...

CITY           SKY/WX    TMP DP  RH WIND       PRES   REMARKS
COLO. SPRINGS  PTCLDY    22  19  89 N7        30.31F WCI  13
A. F. ACADEMY  PTCLDY    21  18  88 N7        30.31F WCI  12
ELLICOTT       NOT AVBL
FALCON         NOT AVBL
FORT CARSON    PTCLDY    24  21  89 NW7       30.30F WCI  16
LIMON          CLEAR     22  18  85 SE8       30.30S WCI  12
MONUMENT HILL  PTCLDY    36  19  51 SW10      30.29R
TRINIDAD       PTCLDY    29  23  78 W8        30.31F WCI  21
$$

COZ042>045-048>051-090-091-270900-
...NORTHEAST COLORADO...

CITY           SKY/WX    TMP DP  RH WIND       PRES   REMARKS
GREELEY ARPT   CLOUDY    23  16  74 CALM      30.27F
AKRON          PTCLDY    26  23  88 W15       30.24F WCI  14
BURLINGTON     CLEAR     23  18  81 SW17      30.31F WCI   9
WRAY           PTCLDY    24  22  93 SE7       30.30F WCI  16
STERLING       PTCLDY    21  19  93 CALM      30.26F
HOLYOKE        PTCLDY    23  19  86 S6        30.29F WCI  16
FORT MORGAN    PTCLDY    22  20  94 W7        30.26F WCI  13
$$

COZ086-089-092>099-270900-
...SOUTHEAST COLORADO...

CITY           SKY/WX    TMP DP  RH WIND       PRES   REMARKS
PUEBLO         PTCLDY    24  19  81 CALM      30.32F
LA JUNTA       CLEAR     22  19  89 NW6       30.33S WCI  14
LAMAR          PTCLDY    22  17  81 E9        30.33F WCI  12
SPRINGFIELD      N/A     28  20  71 SW10      30.33F WCI  19
$$



USA.gov is the U.S. government's official web portal to all federal, state and local government web resources and services.